When you browse on this site, cookies collect data to enhance your experience and personalize the content and advertising you see.
Visit our Privacy Policy to learn more. By continuing to use the site, you agree to this use of cookies and data.
  • En España
  • Lista de países
  • Para 7 días
  • Temperatura del agua
  • El tiempo en el mapa
  • Informadores
  • user-avatar
    Iniciar sesión

    Tiempo cada hora Goiania

    Hoy, 20 Febrero, Jueves

    Tiempo Temperatura Precipitaciones Viento Presión Humedad
    00:00 +21°C° 0.9 mm 0 mps 697 mmHg 92%
    01:00 +21°C° 0.4 mm 0 mps 697 mmHg 91%
    02:00 +20°C° 0.4 mm 0 mps 697 mmHg 91%
    03:00 +21°C° 0 mm 0 mps 696 mmHg 93%
    04:00 +21°C° 0.1 mm 0 mps 696 mmHg 92%
    05:00 +20°C° 0.1 mm 0 mps 696 mmHg 92%
    06:00 +20°C° 0.1 mm 0 mps 696 mmHg 92%
    07:00 +23°C° 0 mm 1 mps 697 mmHg 90%
    08:00 +24°C° 0 mm 1 mps 697 mmHg 88%
    09:00 +25°C° 0 mm 1 mps 698 mmHg 84%
    10:00 +27°C° 0 mm 2 mps 698 mmHg 79%
    11:00 +28°C° 0 mm 2 mps 698 mmHg 73%
    12:00 +30°C° 0 mm 2 mps 698 mmHg 67%
    13:00 +30°C° 0.4 mm 2 mps 697 mmHg 68%
    14:00 +30°C° 0.4 mm 2 mps 697 mmHg 69%
    15:00 +30°C° 0.4 mm 2 mps 696 mmHg 71%
    16:00 +29°C° 0.6 mm 2 mps 696 mmHg 74%
    17:00 +28°C° 0.6 mm 1 mps 695 mmHg 78%
    18:00 +26°C° 0.6 mm 0 mps 695 mmHg 82%
    19:00 +25°C° 0.2 mm 0 mps 696 mmHg 85%
    20:00 +23°C° 0.2 mm 0 mps 697 mmHg 87%
    21:00 +22°C° 0.2 mm 0 mps 697 mmHg 90%
    22:00 +24°C° 0.8 mm 1 mps 697 mmHg 91%
    23:00 +24°C° 0.8 mm 1 mps 697 mmHg 92%

    Mañana, 21 Febrero, Viernes

    Tiempo Temperatura Precipitaciones Viento Presión Humedad
    00:00 +23°C° 0.8 mm 1 mps 698 mmHg 93%
    01:00 +23°C° 0.2 mm 1 mps 697 mmHg 93%
    02:00 +23°C° 0.2 mm 1 mps 697 mmHg 93%
    03:00 +23°C° 0.2 mm 1 mps 696 mmHg 92%
    10:00 +27°C° 0.5 mm 3 mps 699 mmHg 81%
    11:00 +28°C° 0.5 mm 3 mps 699 mmHg 79%
    12:00 +29°C° 0.5 mm 3 mps 698 mmHg 77%
    13:00 +29°C° 1.3 mm 3 mps 698 mmHg 78%
    14:00 +29°C° 1.3 mm 3 mps 697 mmHg 78%
    15:00 +29°C° 1.3 mm 2 mps 696 mmHg 78%
    16:00 +28°C° 1.2 mm 2 mps 696 mmHg 81%
    17:00 +27°C° 1.2 mm 2 mps 696 mmHg 84%
    18:00 +27°C° 1.2 mm 2 mps 696 mmHg 87%
    19:00 +26°C° 0.7 mm 1 mps 696 mmHg 88%
    20:00 +25°C° 0.7 mm 1 mps 697 mmHg 89%
    21:00 +24°C° 0.7 mm 1 mps 698 mmHg 89%
    22:00 +24°C° 0.1 mm 1 mps 698 mmHg 90%
    23:00 +24°C° 0.1 mm 1 mps 698 mmHg 90%

    Pasado mañana, 22 Febrero, Sábado

    Tiempo Temperatura Precipitaciones Viento Presión Humedad
    00:00 +23°C° 0.1 mm 1 mps 698 mmHg 91%
    01:00 +23°C° 0.5 mm 1 mps 698 mmHg 91%
    02:00 +23°C° 0.5 mm 1 mps 697 mmHg 91%
    03:00 +23°C° 0.5 mm 1 mps 697 mmHg 91%
    04:00 +23°C° 0.3 mm 1 mps 697 mmHg 91%
    05:00 +23°C° 0.3 mm 1 mps 697 mmHg 91%
    06:00 +23°C° 0.3 mm 2 mps 698 mmHg 91%
    07:00 +24°C° 0.1 mm 2 mps 698 mmHg 89%
    08:00 +25°C° 0.1 mm 2 mps 699 mmHg 87%
    09:00 +26°C° 0.1 mm 3 mps 699 mmHg 85%
    10:00 +27°C° 0.6 mm 3 mps 699 mmHg 83%
    11:00 +28°C° 0.6 mm 3 mps 699 mmHg 80%
    12:00 +29°C° 0.6 mm 3 mps 699 mmHg 77%
    13:00 +29°C° 1.3 mm 3 mps 698 mmHg 78%
    14:00 +29°C° 1.3 mm 3 mps 698 mmHg 79%
    15:00 +29°C° 1.3 mm 3 mps 697 mmHg 80%
    16:00 +28°C° 1.4 mm 3 mps 697 mmHg 84%
    17:00 +27°C° 1.4 mm 2 mps 697 mmHg 87%
    18:00 +26°C° 1.4 mm 2 mps 697 mmHg 90%
    19:00 +25°C° 1.7 mm 2 mps 697 mmHg 91%
    20:00 +25°C° 1.7 mm 2 mps 698 mmHg 92%
    21:00 +24°C° 1.7 mm 2 mps 699 mmHg 93%
    22:00 +24°C° 1.3 mm 2 mps 699 mmHg 94%
    23:00 +22°C° 1.3 mm 3 mps 699 mmHg 95%

    23 Febrero, Domingo

    Tiempo Temperatura Precipitaciones Viento Presión Humedad
    00:00 +22°C° 1.3 mm 3 mps 699 mmHg 96%
    01:00 +22°C° 0.8 mm 3 mps 699 mmHg 96%
    02:00 +23°C° 0.8 mm 2 mps 698 mmHg 96%
    03:00 +21°C° 0.8 mm 2 mps 698 mmHg 96%
    04:00 +22°C° 0.7 mm 1 mps 698 mmHg 96%
    05:00 +22°C° 0.7 mm 1 mps 698 mmHg 96%
    06:00 +20°C° 0.7 mm 0 mps 699 mmHg 96%
    07:00 +21°C° 0.6 mm 0 mps 699 mmHg 95%
    08:00 +21°C° 0.6 mm 0 mps 699 mmHg 94%
    09:00 +23°C° 0.6 mm 1 mps 700 mmHg 93%
    10:00 +25°C° 0.1 mm 1 mps 700 mmHg 86%
    11:00 +27°C° 0.1 mm 1 mps 700 mmHg 78%
    12:00 +29°C° 0.1 mm 1 mps 700 mmHg 70%
    13:00 +29°C° 0.9 mm 1 mps 700 mmHg 73%
    14:00 +29°C° 0.9 mm 1 mps 699 mmHg 75%
    15:00 +29°C° 0.9 mm 1 mps 698 mmHg 77%
    16:00 +28°C° 1.7 mm 1 mps 698 mmHg 80%
    17:00 +28°C° 1.7 mm 1 mps 697 mmHg 84%
    18:00 +25°C° 1.7 mm 0 mps 697 mmHg 88%
    19:00 +24°C° 0.7 mm 0 mps 697 mmHg 88%
    20:00 +23°C° 0.7 mm 0 mps 698 mmHg 89%
    21:00 +22°C° 0.7 mm 0 mps 698 mmHg 89%
    22:00 +22°C° 0.5 mm 0 mps 698 mmHg 90%
    23:00 +22°C° 0.5 mm 0 mps 698 mmHg 90%

    24 Febrero, Lunes

    Tiempo Temperatura Precipitaciones Viento Presión Humedad
    00:00 +22°C° 0.5 mm 0 mps 698 mmHg 91%
    01:00 +21°C° 1.7 mm 0 mps 698 mmHg 91%
    02:00 +23°C° 1.7 mm 1 mps 698 mmHg 92%
    03:00 +23°C° 1.7 mm 1 mps 697 mmHg 93%
    04:00 +23°C° 1.7 mm 1 mps 697 mmHg 94%
    05:00 +23°C° 1.7 mm 1 mps 698 mmHg 94%
    06:00 +23°C° 1.7 mm 1 mps 698 mmHg 95%
    07:00 +23°C° 2.2 mm 1 mps 698 mmHg 95%
    08:00 +23°C° 2.2 mm 1 mps 699 mmHg 96%
    09:00 +21°C° 2.2 mm 0 mps 699 mmHg 96%
    10:00 +24°C° 1.2 mm 1 mps 699 mmHg 95%
    11:00 +24°C° 1.2 mm 1 mps 699 mmHg 94%
    12:00 +24°C° 1.2 mm 1 mps 699 mmHg 93%
    13:00 +25°C° 0.1 mm 1 mps 699 mmHg 91%
    14:00 +25°C° 0.1 mm 1 mps 698 mmHg 89%
    15:00 +24°C° 0.1 mm 0 mps 697 mmHg 86%
    16:00 +24°C° 0 mm 0 mps 697 mmHg 87%
    17:00 +24°C° 0 mm 0 mps 697 mmHg 88%
    18:00 +24°C° 0 mm 0 mps 696 mmHg 88%
    19:00 +23°C° 0 mm 0 mps 697 mmHg 89%
    20:00 +22°C° 0 mm 0 mps 697 mmHg 90%
    21:00 +22°C° 0 mm 0 mps 698 mmHg 91%
    22:00 +21°C° 0.2 mm 0 mps 698 mmHg 91%
    23:00 +21°C° 0.2 mm 0 mps 698 mmHg 92%

    25 Febrero, Martes

    Tiempo Temperatura Precipitaciones Viento Presión Humedad
    00:00 +23°C° 0.2 mm 1 mps 698 mmHg 92%
    01:00 +23°C° 0 mm 1 mps 698 mmHg 92%
    02:00 +23°C° 0 mm 1 mps 697 mmHg 91%
    03:00 +21°C° 0 mm 0 mps 697 mmHg 91%
    04:00 +21°C° 0 mm 0 mps 697 mmHg 91%
    05:00 +21°C° 0 mm 0 mps 697 mmHg 91%
    06:00 +21°C° 0 mm 0 mps 697 mmHg 91%
    07:00 +22°C° 0.2 mm 0 mps 698 mmHg 88%
    08:00 +23°C° 0.2 mm 0 mps 699 mmHg 86%
    09:00 +25°C° 0.2 mm 0 mps 699 mmHg 83%
    10:00 +28°C° 1.4 mm 1 mps 699 mmHg 81%
    11:00 +28°C° 1.4 mm 2 mps 699 mmHg 80%
    12:00 +29°C° 1.4 mm 2 mps 699 mmHg 78%
    13:00 +29°C° 1.5 mm 2 mps 698 mmHg 78%
    14:00 +29°C° 1.5 mm 2 mps 697 mmHg 78%
    15:00 +29°C° 1.5 mm 2 mps 696 mmHg 79%
    16:00 +29°C° 1.3 mm 2 mps 696 mmHg 81%
    17:00 +28°C° 1.3 mm 1 mps 696 mmHg 84%
    18:00 +27°C° 1.3 mm 1 mps 696 mmHg 86%
    19:00 +26°C° 0.9 mm 1 mps 696 mmHg 87%
    20:00 +26°C° 0.9 mm 1 mps 696 mmHg 88%
    21:00 +25°C° 0.9 mm 1 mps 697 mmHg 88%
    22:00 +22°C° 0.4 mm 0 mps 697 mmHg 88%
    23:00 +22°C° 0.4 mm 0 mps 697 mmHg 89%
    Mostrar más